Weather History for KAUW - April, 2014

Change the Weather History Date:

Sunday, April 20, 2014

  Actual Average Record
Temperature  
Mean Temperature 55 °F 46 °F  
Max Temperature 61 °F 57 °F 86 °F (1987)
Min Temperature 48 °F 35 °F 14 °F (1907)
Degree Days  
Heating Degree Days 10 19  
Month to date heating degree days 543 465  
Since 1 July heating degree days 8822 7686  
Cooling Degree Days 0 0  
Month to date cooling degree days 0 0  
Year to date cooling degree days 0 0  
Growing Degree Days 4 (Base 50)    
Moisture  
Dew Point 47 °F    
Average Humidity 79    
Maximum Humidity 93    
Minimum Humidity 64    
Precipitation  
Precipitation 0.05 in 0.09 in 1.27 in (2000)
Month to date precipitation 2.19 1.70  
Year to date precipitation 5.88 5.40  
Snow  
Snow 0.00 in 0.20 in 2.40 in (1925)
Month to date snowfall 8.4 3.2  
Since 1 July snowfall 84.3 58.5  
Snow Depth 0.00 in    
Sea Level Pressure  
Sea Level Pressure 30.05 in    
Wind  
Wind Speed 6 mph (South)    
Max Wind Speed 17 mph    
Max Gust Speed 22 mph    
Visibility 9 miles    
Events Rain    
T = Trace of Precipitation, MM = Missing Value Source: NWS Daily Summary

Daily Weather History Graph

Daily Weather History Graph

Search for Another Location

Airport or City:

Trip Planner

Search our weather history database for the weather conditions in past years. The results will help you decide how hot, cold, wet, or windy it might be!

Date:

Astronomy

Apr. 20, 2014 Rise Set
Actual Time 6:05 AM CDT 7:50 PM CDT
Civil Twilight 5:34 AM CDT 8:21 PM CDT
Nautical Twilight 4:56 AM CDT 8:59 PM CDT
Astronomical Twilight 4:15 AM CDT 9:40 PM CDT
Moon 12:35 AM CDT (4/20) 10:20 AM CDT (4/20)
Length of Visible Light 14h 47m
Length of Day
13h 44m
Waning Gibbous, 68% of the Moon is Illuminated
Apr 20
Waning Gibbous
Apr 22
Last Quarter
Apr 29
New
May 6
First Quarter
May 14
Full

Hourly Weather History & Observations

Time (CDT) Temp. Dew Point Humidity Pressure Visibility Wind Dir Wind Speed Gust Speed Precip Events Conditions
12:54 AM 55.0 °F 36.0 °F 49% 30.09 in 10.0 mi South 11.5 mph - 0.00 in   Overcast
1:54 AM 54.0 °F 37.0 °F 53% 30.09 in 10.0 mi South 10.4 mph - 0.00 in Rain Light Rain
2:54 AM 50.0 °F 42.1 °F 74% 30.09 in 9.0 mi SSE 8.1 mph - 0.01 in Rain Light Rain
3:54 AM 50.0 °F 41.0 °F 71% 30.08 in 10.0 mi South 6.9 mph - 0.01 in   Overcast
4:54 AM 50.0 °F 41.0 °F 71% 30.10 in 8.0 mi SSW 8.1 mph - 0.00 in Rain Light Rain
5:54 AM 48.9 °F 42.1 °F 77% 30.08 in 10.0 mi South 10.4 mph - 0.02 in   Overcast
6:54 AM 48.9 °F 42.1 °F 77% 30.08 in 9.0 mi South 11.5 mph - 0.00 in   Overcast
7:54 AM 51.1 °F 43.0 °F 74% 30.09 in 10.0 mi South 6.9 mph - N/A   Mostly Cloudy
8:54 AM 51.1 °F 43.0 °F 74% 30.09 in 10.0 mi South 10.4 mph - 0.01 in Rain Light Rain
9:54 AM 51.1 °F 46.0 °F 83% 30.09 in 10.0 mi South 3.5 mph - 0.00 in   Overcast
10:54 AM 55.0 °F 48.0 °F 77% 30.09 in 10.0 mi SSW 8.1 mph - N/A   Mostly Cloudy
11:54 AM 57.9 °F 50.0 °F 75% 30.09 in 10.0 mi SSW 13.8 mph - N/A   Partly Cloudy
12:54 PM 57.9 °F 48.9 °F 72% 30.08 in 10.0 mi SSW 10.4 mph - 0.00 in   Overcast
1:54 PM 60.1 °F 48.9 °F 67% 30.06 in 10.0 mi South 9.2 mph - N/A   Overcast
2:54 PM 55.9 °F 48.9 °F 77% 30.06 in 10.0 mi South 9.2 mph - 0.00 in   Overcast
3:17 PM 57.0 °F 48.9 °F 74% 30.03 in 10.0 mi SSW 3.5 mph - N/A   Overcast
3:54 PM 57.0 °F 50.0 °F 77% 30.05 in 10.0 mi South 3.5 mph - N/A   Overcast
4:19 PM 57.9 °F 50.0 °F 75% 30.02 in 10.0 mi South 8.1 mph - N/A   Overcast
4:54 PM 57.0 °F 50.0 °F 77% 30.04 in 10.0 mi South 6.9 mph - N/A   Overcast
6:09 PM 57.9 °F 52.0 °F 81% 30.01 in 9.0 mi South 3.5 mph - N/A   Overcast
6:23 PM 57.9 °F 52.0 °F 81% 30.01 in 9.0 mi South 5.8 mph - N/A   Overcast
6:54 PM 57.0 °F 52.0 °F 83% 30.02 in 8.0 mi Calm Calm - N/A   Overcast
7:24 PM 57.0 °F 52.0 °F 83% 29.99 in 8.0 mi South 4.6 mph - N/A   Overcast
7:54 PM 57.0 °F 53.1 °F 87% 30.01 in 8.0 mi SSE 4.6 mph - N/A   Overcast
8:54 PM 57.0 °F 53.1 °F 87% 30.01 in 8.0 mi SSE 3.5 mph - N/A   Overcast
9:54 PM 55.0 °F 52.0 °F 89% 30.01 in 8.0 mi South 3.5 mph - N/A   Mostly Cloudy
10:54 PM 55.0 °F 52.0 °F 89% 29.99 in 6.0 mi Calm Calm - N/A   Overcast
11:54 PM 53.1 °F 51.1 °F 93% 29.99 in 6.0 mi Calm Calm - N/A   Overcast